Weather History for Minneapolis Flying Cloud, MN

Change the Weather History Date:

Tuesday, September 17, 2013

  Actual Average Record
Temperature  
Mean Temperature 58 °F -  
Max Temperature 69 °F 70 °F 87 °F (2007)
Min Temperature 48 °F 50 °F 46 °F (2006)
Degree Days  
Heating Degree Days 7    
Growing Degree Days 8 (Base 50)    
Moisture  
Dew Point 51 °F    
Average Humidity 79    
Maximum Humidity 94    
Minimum Humidity 55    
Precipitation  
Precipitation 0.03 in - - ()
Sea Level Pressure  
Sea Level Pressure 30.08 in    
Wind  
Wind Speed 11 mph (SE)    
Max Wind Speed 20 mph    
Max Gust Speed 28 mph    
Visibility 7 miles    
Events Rain    
Averages and records for this station are not official NWS values.
T = Trace of Precipitation, MM = Missing Value Source: NWS Daily Summary

Daily Weather History Graph

Daily Weather History Graph

Search for Another Location

Airport:

Trip Planner

Search our weather history database for the weather conditions in past years. The results will help you decide how hot, cold, wet, or windy it might be!

Date:

Astronomy

Sep. 17, 2013 Rise Set
Actual Time 6:55 AM CDT 7:20 PM CDT
Civil Twilight 6:25 AM CDT 7:49 PM CDT
Nautical Twilight 5:51 AM CDT 8:24 PM CDT
Astronomical Twilight 5:15 AM CDT 8:59 PM CDT
Moon 6:09 PM CDT (9/17) 4:47 AM CDT (9/17)
Length of Visible Light 13h 23m
Length of Day
12h 25m
Waxing Gibbous, 96% of the Moon is Illuminated
Sep 17
Waxing Gibbous
Sep 19
Full
Sep 26
Last Quarter
Oct 4
New
Oct 11
First Quarter

Hourly Weather History & Observations

Time (CDT) Temp. Dew Point Humidity Pressure Visibility Wind Dir Wind Speed Gust Speed Precip Events Conditions
12:53 AM 52.0 °F 43.0 °F 71% 30.26 in 10.0 mi SSE 8.1 mph - N/A   Clear
1:53 AM 52.0 °F 43.0 °F 71% 30.25 in 10.0 mi SSE 10.4 mph - N/A   Clear
2:53 AM 51.1 °F 43.0 °F 74% 30.24 in 10.0 mi SSE 9.2 mph - N/A   Clear
3:53 AM 48.9 °F 43.0 °F 80% 30.23 in 10.0 mi SSE 8.1 mph - N/A   Clear
4:53 AM 50.0 °F 43.0 °F 77% 30.22 in 10.0 mi SE 8.1 mph - N/A   Mostly Cloudy
5:53 AM 50.0 °F 43.0 °F 77% 30.21 in 10.0 mi SE 9.2 mph - N/A   Overcast
6:53 AM 50.0 °F 44.1 °F 80% 30.21 in 10.0 mi SE 10.4 mph - N/A   Overcast
7:53 AM 52.0 °F 45.0 °F 77% 30.20 in 10.0 mi SSE 12.7 mph - N/A   Overcast
8:53 AM 55.0 °F 46.0 °F 72% 30.19 in 10.0 mi SSE 12.7 mph - N/A   Overcast
9:53 AM 57.9 °F 46.9 °F 67% 30.18 in 10.0 mi SSE 12.7 mph 19.6 mph N/A   Overcast
10:53 AM 64.0 °F 50.0 °F 60% 30.15 in 10.0 mi SSE 9.2 mph - N/A   Partly Cloudy
11:53 AM 68.0 °F 51.1 °F 55% 30.14 in 10.0 mi SSE 16.1 mph 20.7 mph N/A   Clear
12:53 PM 68.0 °F 52.0 °F 56% 30.11 in 10.0 mi South 17.3 mph 24.2 mph N/A   Mostly Cloudy
1:53 PM 68.0 °F 51.1 °F 55% 30.08 in 10.0 mi SSE 19.6 mph 27.6 mph N/A   Overcast
2:53 PM 66.9 °F 52.0 °F 59% 30.06 in 10.0 mi SSE 15.0 mph - N/A   Overcast
3:53 PM 64.9 °F 51.1 °F 61% 30.04 in 10.0 mi SSE 19.6 mph 27.6 mph N/A   Overcast
4:53 PM 63.0 °F 51.1 °F 65% 30.03 in 10.0 mi SSE 18.4 mph 24.2 mph N/A   Overcast
5:53 PM 61.0 °F 53.1 °F 75% 30.02 in 10.0 mi SE 13.8 mph - N/A   Overcast
6:13 PM 59.0 °F 55.4 °F 88% 30.01 in 7.0 mi SE 11.5 mph - 0.00 in   Overcast
6:34 PM 57.2 °F 55.4 °F 94% 30.01 in 1.8 mi SE 10.4 mph - 0.00 in Rain Light Rain
6:51 PM 57.2 °F 55.4 °F 94% 30.00 in 3.0 mi SE 8.1 mph - 0.01 in Rain Light Rain
6:53 PM 57.9 °F 55.0 °F 90% 30.01 in 3.0 mi SE 10.4 mph - 0.01 in   Overcast
7:23 PM 57.2 °F 55.4 °F 94% 29.99 in 2.5 mi SE 10.4 mph - 0.00 in Rain Light Rain
7:48 PM 57.2 °F 55.4 °F 94% 29.98 in 4.0 mi SE 10.4 mph - 0.01 in   Overcast
7:53 PM 57.9 °F 55.9 °F 93% 29.99 in 5.0 mi SE 10.4 mph - 0.01 in   Overcast
8:09 PM 57.2 °F 55.4 °F 94% 29.98 in 5.0 mi SE 10.4 mph - N/A   Overcast
8:53 PM 59.0 °F 55.9 °F 90% 29.98 in 5.0 mi SE 10.4 mph - N/A   Overcast
9:53 PM 59.0 °F 57.0 °F 93% 29.97 in 5.0 mi SSE 10.4 mph - 0.00 in   Overcast
10:13 PM 59.0 °F 57.2 °F 94% 29.96 in 2.5 mi SSE 9.2 mph - 0.01 in Rain Light Rain
10:32 PM 60.8 °F 57.2 °F 88% 29.96 in 4.0 mi SE 8.1 mph - 0.01 in   Overcast
10:53 PM 60.1 °F 57.0 °F 90% 29.95 in 4.0 mi SE 9.2 mph - 0.01 in   Overcast
11:53 PM 60.1 °F 57.9 °F 93% 29.94 in 5.0 mi SSE 5.8 mph - N/A   Overcast